GW3221 Weather Reports


time (UTC)temp
C
wind
direction
speed
KPH
gust
KPH
rain 1hr
cm
rain 24hr
cm
rain mn
cm
humidity
%
barometer
mb
20260504201538 23 258 1.6 11.3 0.00 0.00 0.00 39 1010.6
20260504200038 23 268 1.6 6.4 0.00 0.00 0.00 38 1010.6
20260504194543 23 160 1.6 8.0 0.00 0.00 0.00 38 1010.6
20260504193054 23 327 3.2 9.7 0.00 0.00 0.00 39 1010.7
20260504191538 22 85 3.2 8.0 0.00 0.00 0.00 40 1010.8
20260504190040 22 204 3.2 14.5 0.00 0.00 0.00 34 1010.9
20260504184540 22 234 3.2 14.5 0.00 0.00 0.00 36 1011.3
20260504183044 22 312 3.2 6.4 0.00 0.00 0.00 40 1011.5
20260504181543 22 108 3.2 12.9 0.00 0.00 0.00 38 1011.9
20260504180110 22 352 4.8 14.5 0.00 0.00 0.00 37 1012.0
20260504174539 21 263 4.8 14.5 0.00 0.00 0.00 36 1012.1
20260504173039 21 16 1.6 12.9 0.00 0.00 0.00 46 1012.3
20260504171538 21 288 3.2 12.9 0.00 0.00 0.00 40 1012.3
20260504081536 5 0 0.0 0.0 0.00 0.00 0.00 71 1014.9
20260504044539 7 0 0.0 1.6 0.00 0.00 0.00 60 1014.8
20260504043043 8 269 0.0 1.6 0.00 0.00 0.00 59 1014.7
20260504041538 8 0 0.0 3.2 0.00 0.00 0.00 58 1014.4
20260504040037 8 0 0.0 1.6 0.00 0.00 0.00 59 1014.3
20260504034549 7 153 0.0 0.0 0.00 0.00 0.00 59 1014.3
20260504033041 8 0 0.0 3.2 0.00 0.00 0.00 58 1014.2
20260504031538 8 0 0.0 0.0 0.00 0.00 0.00 57 1014.2
20260504030046 8 0 0.0 0.0 0.00 0.00 0.00 57 1014.2
20260504024542 8 0 0.0 1.6 0.00 0.00 0.00 57 1014.1
20260504023041 8 0 0.0 1.6 0.00 0.00 0.00 57 1014.1
20260504021539 8 0 0.0 0.0 0.00 0.00 0.00 55 1014.1
20260504020048 9 174 0.0 0.0 0.00 0.00 0.00 54 1014.0
20260504014547 9 0 0.0 1.6 0.00 0.00 0.00 54 1013.9
20260504013038 9 0 0.0 0.0 0.00 0.00 0.00 52 1013.9
20260504011537 10 174 0.0 1.6 0.00 0.00 0.00 51 1013.7
20260504010041 10 0 0.0 0.0 0.00 0.00 0.00 49 1013.5
20260504004539 11 174 0.0 1.6 0.00 0.00 0.00 47 1013.3
20260504003038 11 139 0.0 1.6 0.00 0.00 0.00 46 1013.2
20260504001539 11 0 0.0 1.6 0.00 0.00 0.00 45 1013.0
20260504000038 12 0 0.0 4.8 0.00 0.00 0.00 41 1012.7
20260503234540 13 304 0.0 6.4 0.00 0.00 0.00 39 1012.6
20260503233039 13 17 0.0 11.3 0.00 0.00 0.00 39 1012.4
20260503231538 14 354 3.2 11.3 0.00 0.00 0.00 36 1012.4
20260503230038 14 316 0.0 9.7 0.00 0.00 0.00 36 1012.1
20260503224536 15 297 4.8 11.3 0.00 0.00 0.00 34 1012.2
20260503223035 15 342 1.6 8.0 0.00 0.00 0.00 36 1012.1
20260503221535 15 1 3.2 9.7 0.00 0.00 0.00 34 1012.1
20260503220039 15 334 1.6 6.4 0.00 0.00 0.00 34 1012.1
20260503214542 15 318 4.8 11.3 0.00 0.00 0.00 31 1012.0
20260503213038 15 266 1.6 16.1 0.00 0.00 0.00 34 1011.9
20260503211546 15 297 3.2 11.3 0.00 0.00 0.00 32 1012.1
20260503210040 15 5 3.2 19.3 0.00 0.00 0.00 36 1012.1
20260503204539 15 112 3.2 14.5 0.00 0.00 0.00 36 1012.1
20260503203044 15 299 1.6 14.5 0.00 0.00 0.00 36 1012.2